Regional Weather Roundup
Issued by NWS Little Rock, AR

Home | Current Version | Previous Version | Graphics & Text | Print | Product List | Glossary On
Versions: 1 2 3 4 5 6 7 8 9 10 11 12 13 14 15 16 17 18 19 20 21 22 23 24 25 26 27 28 29 30 31 32 33 34 35 36 37 38 39 40 41 42 43 44 45 46 47 48 49 50
378
ASUS44 KLZK 101905
RWRLZK

WEATHER ROUNDUP FOR ARKANSAS
NATIONAL WEATHER SERVICE LITTLE ROCK AR
100 PM CST WED FEB 10 2016

NOTE: "FAIR" INDICATES FEW OR NO CLOUDS BELOW 12,000 FEET WITH NO
SIGNIFICANT WEATHER AND/OR OBSTRUCTIONS TO VISIBILITY.

ARZ001-003-010-029-102000-
NORTHWEST ARKANSAS

CITY           SKY/WX    TMP DP  RH WIND       PRES   REMARKS
FAYETTEVILLE   SUNNY     47  20  34 SW15      30.10F
FORT SMITH     SUNNY     49  13  23 SW10      30.17F
HARRISON       SUNNY     43  15  32 E3        30.08F
BENTONVILLE    SUNNY     45  16  31 SW15      30.09F
ROGERS         SUNNY     44  18  35 SW20      30.08F
SILOAM SPGS    SUNNY     46  18  31 SW22      30.10F
HIGHFILL       SUNNY     47  19  33 SW18G26   30.08F
SPRINGDALE     SUNNY     45  16  31 SW12G25   30.11F
$$

ARZ004-005-016-102000-
NORTH CENTRAL ARKANSAS

CITY           SKY/WX    TMP DP  RH WIND       PRES   REMARKS
BATESVILLE     MOSUNNY   41  10  28 SW8       30.19F
FLIPPIN        SUNNY     39  12  33 S8        30.10F
MTN HOME       SUNNY     39  12  33 S8        30.11F
$$

ARZ040-041-102000-
WEST CENTRAL ARKANSAS

CITY           SKY/WX    TMP DP  RH WIND       PRES   REMARKS
MENA           SUNNY     54  21  28 W12       30.18F
MOUNT IDA      SUNNY     50  17  27 SW8       30.16F
$$

ARZ009-017-025-026-028-102000-
NORTHEAST ARKANSAS

CITY           SKY/WX    TMP DP  RH WIND       PRES   REMARKS
CORNING        FAIR      32   9  37 SW8       30.21F WCI  25
JONESBORO      CLOUDY    32   7  35 SW9       30.21F WCI  24
NEWPORT        MOSUNNY   41   8  25 VRB6      30.21F
WALNUT RIDGE   CLOUDY    36   9  32 W7        30.19F
BLYTHEVILLE    CLOUDY    33   7  33 W9        30.22F WCI  25
$$

ARZ022-023-033-042-044-102000-
CENTRAL ARKANSAS

CITY           SKY/WX    TMP DP  RH WIND       PRES   REMARKS
LITTLE ROCK    SUNNY     46  14  27 SW10      30.22F
N LITTLE ROCK  SUNNY     43  16  32 S7        30.22F
SEARCY         SUNNY     43  15  32 S7        30.22F
HOT SPRINGS    SUNNY     49  17  28 SW12G17   30.21F
RUSSELLVILLE   SUNNY     43  14  31 VRB6      30.18F
CLINTON        FAIR      43  14  31 CALM      30.18F
$$

ARZ036-102000-
EAST ARKANSAS

CITY           SKY/WX    TMP DP  RH WIND       PRES   REMARKS
WEST MEMPHIS   CLOUDY    37  13  37 S7        30.21F
$$

ARZ050-053-066-070-073-102000-
SOUTHWEST ARKANSAS

CITY           SKY/WX    TMP DP  RH WIND       PRES   REMARKS
ARKADELPHIA    FAIR      51  19  28 SW9       30.24F
CAMDEN         SUNNY     54  14  20 SW8       30.25F
TEXARKANA      SUNNY     53  21  28 SW9       30.25F
EL DORADO      SUNNY     51  18  27 S9        30.25F
DE QUEEN       SUNNY     53  22  29 W15       30.22F
$$

ARZ056-057-069-102000-
SOUTHEAST ARKANSAS

CITY           SKY/WX    TMP DP  RH WIND       PRES   REMARKS
PINE BLUFF     SUNNY     46  14  27 VRB3      30.24F
STUTTGART      SUNNY     43  16  33 SW9       30.25F
MONTICELLO     SUNNY     49  15  25 VRB5      30.24F

$$






USA.gov is the U.S. government's official web portal to all federal, state and local government web resources and services.